SCP
0 0 0 0 0 0 0 0 0 0 0 0 0 0 0 0 0 0 0 0 0 0 0 0 0 0 0 0 0 0 0 0 0 0 0 0 0 0 0 0 0 0 0 0
0 0 0 0 0 0 0 0 0 0 0 0 0 0 0 0 0 0 0 0 0 0 0 0 0 0 0 0 0 0 0 0 0 0 0 0 0 0 0 0 0 0 0 0
0 0 0 0 0 0 0 0 0 0 0 0 0 0 0 0 0 0 0 0 0 0 0 0 0 0 0 0 0 0 0 0 0 0 0 0 0 0 0 0 0 0 0 0
0 0 0 0 0 0 0 0 0 0 0 0 0 0 0 0 0 0 0 0 0 0 0 0 0 0 0 0 0 0 0 0 0 0 0 0 0 0 0 0 0 0 0 0
0 0 0 0 0 0 0 0 0 0 0 0 0 0 0 0 0 0 0 0 0 0 0 0 0 0 0 0 0 0 0 0 0 0 0 0 0 0 0 0 0 0 0 0
0 0 0 -0 0 0 0 0 0 0 0 0 0 0 0 0 0 0 0 0 0 0 0 0 0 0 0 0 0 0 0 0 0 0 0 0 0 0 0 0 0 0 0 0
0 0 0 0 0 0 0 0 -0 0 0 0 0 0 0 0 0 0 0 0 0 0 0 0 0 0 0 0 0 0 0 0 0 0 0 0 0 0 0 0 0 0 0 0
0 0 0 0 0 0 0 0 0 0 0 0 0 0 0 0 0 0 0 0 0 0 0 0 0 0 0 0 0 0 0 0 0 0 0 0 0 0 0 0 0 0 0 0
0 0 0 0 0 0 0 0 0 0 0 0 0 0 0 0 0 0 0 0 0 0 0 0 0 0 0 0 0 0 0 0 0 0 0 0 0 0 0 0 0 0 0 0
0 0 0 0 0 0 0 0 0 0 0 0 0 0 0 0 0 0 0 0 0 0 0 0 0 0 0 0 0 0 0 0 0 0 0 0 0 0 0 0 0 0 0 0
0 0 0 0 0 0 0 0 0 0 0 0 0 0 0 0 0 0 0 0 0 0 0 0 0 0 0 0 0 0 0 0 0 0 0 0 0 0 0 0 0 0 0 0
0 0 0 0 0 0 0 0 0 0 0 0 0 0 0 0 0 0 0 0 0 0 0 0 0 0 0 0 0 0 0 0 0 0 0 0 0 0 0 0 0 0 0 0
0 0 0 0 0 0 0 0 0 0 0 0 0 0 0 0 0 0 0 0 0 0 0 0 0 0 0 0 0 0 0 0 0 0 0 0 0 0 0 0 0 0 0 0
0 0 0 0 0 0 0 0 0 0 0 0 0 0 0 0 0 0 0 0 0 0 0 0 0 0 0 0 0 0 0 0 0 0 0 0 0 0 0 0 0 0 0 0
0 0 0 0 0 0 0 0 0 0 0 0 0 0 0 0 0 0 0 0 0 0 0 0 0 0 0 0 0 0 0 0 0 0 0 0 0 0 0 0 0 0 0 0
0 0 0 0 0 0 0 0 0 0 0 0 0 0 0 0 0 0 0 0 0 0 0 0 0 0 0 0 0 0 0 0 0 0 0 0 0 0 0 0 0 0 0 0
0 0 0 0 0 0 0 0 0 0 0 0 0 0 0 0 0 0 0 0 0 0 0 0 0 0 0 0 0 0 0 0 0 0 0 0 0 0 0 0 0 0 0 0
0 0 0 0 0 0 0 0 0 0 0 0 0 0 0 0 0 0 0 0 0 0 0 0 0 0 0 0 0 0 0 0 0 0 0 0 0 0 0 0 0 0 0 0
0 0 0 0 0 0 0 0 0 0 0 0 0 0 0 0 0 0 0 0 0 0 0 0 0 0 0 0 0 0 0 0 0 0 0 0 0 0 0 0 0 0 0 0
0 0 0 0 0 0 0 0 0 0 0 0 0 0 0 0 0 0 0 0 0 0 0 0 0 0 0 0 0 0 0 0 0 0 0 0 0 0 0 0 0 0 0 0
0 0 0 0 0 0 0 0 0 0 0 0 0 0 0 0 0 0 0 0 0 0 0 0 0 0 0 0 0 0 0 0 0 0 0 0 0 0 0 0 0 0 0 0
0 0 0 0 0 0 0 0 0 0 0 0 0 0 0 0 0 0 0 0 0 0 0 0 0 0 0 0 0 0 0 0 0 0 0 0 0 0 0 0 0 0 0 0
0 0 0 0 0 0 0 0 0 0 0 0 0 0 0 0 0 0 0 0 0 0 0 0 0 0 0 0 0 0 0 0 0 0 0 0 0 0 0 0 0 0 0 0
0 0 0 0 -0 0 0 0 0 0 0 0 0 0 0 0 0 0 0 0 0 0 0 0 0 0 0 0 0 0 0 0 0 0 0 0 0 0 0 0 0 0 0 0
0 0 0 0 0 0 0 0 0 0 0 0 0 0 0 0 0 0 0 0 0 0 0 0 0 0 0 0 0 0 0 0 0 0 0 0 0 0 0 0 0 0 0 0
0 0 0 0 0 0 0 0 0 0 0 0 0 0 0 0 0 0 0 0 0 0 0 0 0 0 0 0 0 0 0 0 0 0 0 0 0 0 0 0 0 0 0 0
0 0 0 0 0 0 0 0 0 0 0 0 0 0 0 0 0 0 0 0 0 0 0 0 0 0 0 0 0 0 0 0 0 0 0 0 0 0 0 0 0 0 0 0
Wind_Speed_500mb
7 14 17 11 18 17 24 30 21 21 19 13 20 23 49 61 72 74 74 72 72 69 66 63 63 61 58 55 53 48 44 38 32 25 17 10 2 8 14 18 20 23 26 31
4 6 8 10 20 31 30 10 13 9 12 14 41 46 52 66 71 72 81 80 78 74 72 71 69 67 63 58 54 48 42 35 27 20 11 4 6 12 14 16 19 23 30 36
8 4 11 7 25 32 28 11 33 17 27 13 10 31 50 62 80 89 91 89 87 86 83 79 75 70 64 60 55 48 40 33 24 16 7 2 9 11 13 16 21 28 35 42
5 6 5 15 17 26 37 24 34 17 11 27 25 59 71 79 87 91 88 93 94 90 86 81 75 71 67 61 54 47 38 29 20 12 4 6 9 12 15 21 28 34 41 50
10 6 10 11 12 15 17 24 15 36 29 19 26 33 48 79 83 82 89 93 98 99 93 86 83 76 68 64 57 47 37 28 18 8 5 6 9 13 20 26 32 41 48 51
5 9 16 36 13 17 13 23 24 35 23 20 32 11 20 74 86 87 81 85 98 102 95 87 80 76 73 66 57 47 37 27 16 8 7 8 11 15 23 32 39 43 46 51
7 6 18 14 19 43 14 24 27 54 49 52 20 56 77 53 78 88 86 88 92 98 98 91 86 80 73 64 55 44 34 23 14 10 10 11 13 20 28 35 39 44 47 50
5 4 33 16 13 34 21 7 12 9 36 54 71 64 65 46 61 86 90 89 91 96 96 91 86 81 73 62 51 41 30 21 15 14 14 13 17 26 34 36 40 45 52 55
25 28 2 15 5 14 9 10 10 10 15 24 47 64 52 51 67 84 92 92 91 95 96 89 83 75 67 57 46 36 27 22 19 17 16 19 24 30 31 35 41 47 55 62
6 5 3 11 13 18 15 9 10 11 18 26 33 43 49 52 68 80 87 94 95 95 96 91 81 70 56 48 40 32 25 23 22 21 22 25 29 31 33 36 42 50 58 66
9 6 4 9 25 21 14 21 23 22 22 26 31 37 47 57 70 80 86 88 88 93 94 88 79 67 54 44 33 31 33 28 27 27 26 28 29 34 37 40 47 54 59 66
4 4 7 10 18 16 17 15 15 14 16 19 24 34 45 55 65 75 81 83 83 85 83 78 70 58 48 36 40 36 33 31 29 28 28 29 32 35 38 42 46 51 57 63
13 10 13 1 12 8 14 9 7 7 10 12 19 30 41 53 61 68 73 79 83 84 76 67 59 49 44 44 38 35 33 33 31 30 30 33 37 41 44 43 49 52 56 60
10 11 14 24 18 23 20 15 20 18 20 18 22 29 40 48 56 65 75 80 79 73 65 56 52 47 42 39 38 36 35 33 32 32 33 36 41 45 50 56 60 58 56 59
19 22 20 15 19 23 28 26 27 29 31 34 37 37 42 49 58 71 75 75 71 66 63 59 49 43 41 40 38 37 37 35 33 33 36 39 43 47 52 55 58 62 64 60
22 18 13 3 1 5 11 20 27 31 33 35 41 44 46 54 63 72 75 75 75 73 60 50 47 43 41 40 42 41 37 35 35 36 37 38 44 48 51 54 57 58 60 62
16 12 12 9 8 15 20 18 20 26 29 35 41 47 55 65 71 76 77 73 66 56 51 47 43 43 45 46 44 39 36 36 37 38 38 41 45 47 49 52 54 56 57 57
28 27 17 21 25 25 29 30 30 31 33 37 43 48 57 66 74 77 75 71 67 60 54 50 49 50 48 45 42 38 37 38 39 39 40 42 43 45 47 49 50 53 56 55
39 39 39 38 36 35 37 36 31 31 36 40 47 53 59 66 71 72 71 67 63 60 56 53 50 48 45 43 41 40 40 41 42 42 42 43 42 42 42 44 45 46 50 53
35 39 40 40 40 41 41 41 40 36 34 39 45 53 61 65 66 67 69 68 64 57 53 47 46 45 44 44 45 45 45 45 42 41 40 41 40 38 37 38 40 43 45 48
11 15 20 25 29 33 36 39 40 39 37 39 45 52 60 67 71 72 73 72 67 59 52 48 48 47 47 47 48 47 45 42 40 39 38 37 35 34 35 36 38 41 42 44
10 10 12 14 18 22 25 29 32 36 37 38 42 50 58 65 70 72 71 64 59 55 52 49 49 49 48 48 45 43 41 39 37 36 34 34 34 33 33 36 37 38 39 40
14 16 18 20 25 27 29 28 29 32 36 39 42 48 53 57 61 63 64 58 55 52 50 49 49 49 45 43 41 39 37 35 34 34 33 32 33 35 37 38 39 42 42 42
9 14 20 26 29 31 31 32 31 29 29 33 37 40 43 48 56 59 56 51 49 47 46 44 42 39 38 38 36 35 33 33 32 33 33 33 33 36 38 42 43 42 44 46
13 18 23 27 29 30 31 31 30 27 27 28 30 34 36 39 43 43 43 42 43 42 39 36 35 34 34 33 31 30 30 30 31 32 33 34 36 39 40 42 44 47 47 48
16 19 21 23 26 29 30 29 26 23 22 22 25 28 30 31 33 34 36 36 35 34 32 31 31 32 31 30 28 28 28 30 32 34 37 37 39 41 43 44 47 48 49 50
14 16 18 20 22 23 24 23 23 21 19 19 18 19 21 22 22 22 23 23 24 24 25 27 27 26 27 28 28 29 30 33 35 36 39 41 42 44 46 49 50 49 50 51
Wind_Direction_500mb
186 168 161 164 187 172 198 207 191 220 199 211 196 180 181 177 180 182 185 186 185 181 179 179 176 173 170 168 165 163 163 161 158 155 149 137 78 344 342 341 340 341 343 344
89 63 125 177 190 192 212 179 239 155 239 204 202 186 177 182 179 183 192 193 191 188 186 185 182 177 175 172 170 170 170 167 164 160 152 123 341 336 331 336 346 347 342 340
230 81 87 354 207 196 215 198 217 187 220 161 165 183 185 184 190 197 199 198 197 195 192 190 187 183 179 177 176 173 175 172 168 164 167 296 307 315 333 345 349 344 339 335
138 38 150 248 176 189 204 211 216 228 208 184 195 205 208 211 207 205 204 205 203 200 198 194 189 186 184 180 178 178 176 174 171 176 226 306 319 330 343 343 341 339 335 332
133 193 288 280 234 175 168 243 212 219 231 201 209 212 219 218 220 222 220 215 210 206 201 195 191 186 184 181 181 180 180 179 184 202 281 305 308 321 331 332 333 331 333 334
123 179 217 243 158 148 89 270 210 215 218 168 151 195 237 223 223 222 220 217 211 206 200 195 190 189 187 185 184 183 183 187 196 227 263 278 297 316 324 327 330 331 333 332
157 200 270 219 204 159 154 256 191 220 217 182 188 220 247 240 225 224 219 215 213 206 200 196 192 188 187 187 185 186 188 195 211 231 245 263 296 314 319 323 327 330 332 333
98 98 258 167 114 165 213 158 167 167 221 215 223 232 240 238 223 217 214 210 209 202 197 193 192 189 187 186 186 189 194 204 217 233 250 277 302 312 317 318 322 327 329 332
187 211 238 178 161 190 179 209 210 224 251 242 237 233 234 221 207 207 207 203 202 202 193 189 188 189 187 186 189 193 200 211 222 235 257 281 296 305 310 314 321 327 330 333
97 283 184 203 200 216 228 249 260 257 252 257 253 240 226 209 199 197 198 198 198 192 187 183 183 183 190 190 194 199 210 220 223 238 262 282 296 304 311 316 322 329 332 333
281 291 342 291 259 253 275 274 274 274 258 250 244 235 221 206 199 196 195 193 189 189 186 182 182 184 188 195 200 224 219 221 229 242 261 278 292 304 313 320 327 331 334 334
220 7 63 18 16 232 252 271 266 257 242 234 231 228 216 206 201 198 193 187 186 185 184 184 185 189 193 203 215 213 220 228 241 260 275 287 297 305 310 317 326 329 331 331
189 206 241 17 7 326 320 288 296 283 245 222 226 226 221 211 204 198 192 189 187 185 185 189 191 193 208 209 214 222 226 237 251 268 282 292 299 302 306 313 321 325 328 331
210 180 208 214 208 205 225 256 255 258 264 250 250 237 224 213 203 195 190 188 185 186 189 191 198 204 212 218 222 225 234 248 263 276 285 295 302 306 310 315 318 323 328 331
234 234 248 272 263 243 236 237 236 249 256 253 244 233 222 211 198 190 187 187 189 193 198 202 207 214 221 226 230 235 245 256 269 280 289 298 302 305 309 312 315 319 323 327
229 225 222 270 305 276 277 264 256 257 252 239 225 219 217 207 196 190 191 194 197 199 203 210 217 223 229 234 237 243 255 267 275 280 289 295 298 302 306 309 313 318 324 327
194 216 226 245 299 314 309 300 291 282 263 244 233 220 209 203 199 197 197 199 202 206 213 218 226 233 236 238 244 254 265 273 277 283 287 293 297 301 306 310 314 319 325 329
260 277 289 294 296 293 295 295 291 278 265 254 239 227 217 210 208 205 206 207 208 211 217 225 233 239 241 244 250 259 267 271 275 280 285 290 295 300 306 310 316 321 325 328
248 255 261 267 270 275 280 287 290 287 274 260 247 238 229 221 216 214 214 215 216 221 226 231 238 242 246 251 259 266 269 271 274 279 284 289 294 299 304 310 315 320 322 326
245 253 260 266 271 275 278 279 281 281 275 264 253 241 233 228 225 223 224 226 228 230 232 238 245 249 252 258 262 262 264 267 271 276 282 287 293 298 303 308 313 317 321 325
266 272 274 275 276 276 275 275 276 277 277 272 257 248 240 234 230 227 226 228 229 232 237 242 244 246 249 252 256 259 262 266 270 275 281 286 291 298 304 307 311 315 319 323
53 24 1 341 323 307 291 279 273 268 266 262 260 252 242 236 231 229 229 232 233 235 237 239 241 244 247 250 253 257 261 265 271 277 283 289 294 298 300 302 304 307 312 316
13 358 350 343 334 325 316 301 287 274 265 256 249 248 245 242 237 233 233 233 235 236 238 238 240 243 246 250 254 257 262 268 274 279 283 287 291 295 298 299 302 305 308 309
355 345 338 335 335 334 327 318 304 286 265 256 250 244 239 234 228 228 229 229 232 234 235 236 240 244 247 250 253 258 263 269 275 279 282 286 290 292 295 297 299 301 301 302
322 321 320 319 319 322 320 316 308 296 279 260 242 230 223 222 223 231 233 233 233 235 238 241 244 246 248 252 256 260 265 270 273 277 280 284 286 289 293 294 297 299 299 299
289 290 295 301 308 311 312 310 300 288 274 260 247 238 234 228 222 224 221 221 224 227 231 236 242 247 251 254 258 262 267 272 276 279 283 286 289 291 293 295 295 296 298 298
295 302 306 305 305 305 305 301 290 279 265 251 242 239 230 227 228 227 225 226 230 234 237 238 242 246 252 257 261 266 270 273 277 282 284 288 290 292 293 294 294 295 296 296
Wind_Speed_850mb
7 14 17 11 18 17 24 30 21 21 19 13 20 23 49 61 72 74 74 72 72 69 66 63 63 61 58 55 53 48 44 38 32 25 17 10 2 8 14 18 20 23 26 31
4 6 8 10 20 31 30 10 13 9 12 14 41 46 52 66 71 72 81 80 78 74 72 71 69 67 63 58 54 48 42 35 27 20 11 4 6 12 14 16 19 23 30 36
8 4 11 7 25 32 28 11 33 17 27 13 10 31 50 62 80 89 91 89 87 86 83 79 75 70 64 60 55 48 40 33 24 16 7 2 9 11 13 16 21 28 35 42
5 6 5 15 17 26 37 24 34 17 11 27 25 59 71 79 87 91 88 93 94 90 86 81 75 71 67 61 54 47 38 29 20 12 4 6 9 12 15 21 28 34 41 50
10 6 10 11 12 15 17 24 15 36 29 19 26 33 48 79 83 82 89 93 98 99 93 86 83 76 68 64 57 47 37 28 18 8 5 6 9 13 20 26 32 41 48 51
5 9 16 36 13 17 13 23 24 35 23 20 32 11 20 74 86 87 81 85 98 102 95 87 80 76 73 66 57 47 37 27 16 8 7 8 11 15 23 32 39 43 46 51
7 6 18 14 19 43 14 24 27 54 49 52 20 56 77 53 78 88 86 88 92 98 98 91 86 80 73 64 55 44 34 23 14 10 10 11 13 20 28 35 39 44 47 50
5 4 33 16 13 34 21 7 12 9 36 54 71 64 65 46 61 86 90 89 91 96 96 91 86 81 73 62 51 41 30 21 15 14 14 13 17 26 34 36 40 45 52 55
25 28 2 15 5 14 9 10 10 10 15 24 47 64 52 51 67 84 92 92 91 95 96 89 83 75 67 57 46 36 27 22 19 17 16 19 24 30 31 35 41 47 55 62
6 5 3 11 13 18 15 9 10 11 18 26 33 43 49 52 68 80 87 94 95 95 96 91 81 70 56 48 40 32 25 23 22 21 22 25 29 31 33 36 42 50 58 66
9 6 4 9 25 21 14 21 23 22 22 26 31 37 47 57 70 80 86 88 88 93 94 88 79 67 54 44 33 31 33 28 27 27 26 28 29 34 37 40 47 54 59 66
4 4 7 10 18 16 17 15 15 14 16 19 24 34 45 55 65 75 81 83 83 85 83 78 70 58 48 36 40 36 33 31 29 28 28 29 32 35 38 42 46 51 57 63
13 10 13 1 12 8 14 9 7 7 10 12 19 30 41 53 61 68 73 79 83 84 76 67 59 49 44 44 38 35 33 33 31 30 30 33 37 41 44 43 49 52 56 60
10 11 14 24 18 23 20 15 20 18 20 18 22 29 40 48 56 65 75 80 79 73 65 56 52 47 42 39 38 36 35 33 32 32 33 36 41 45 50 56 60 58 56 59
19 22 20 15 19 23 28 26 27 29 31 34 37 37 42 49 58 71 75 75 71 66 63 59 49 43 41 40 38 37 37 35 33 33 36 39 43 47 52 55 58 62 64 60
22 18 13 3 1 5 11 20 27 31 33 35 41 44 46 54 63 72 75 75 75 73 60 50 47 43 41 40 42 41 37 35 35 36 37 38 44 48 51 54 57 58 60 62
16 12 12 9 8 15 20 18 20 26 29 35 41 47 55 65 71 76 77 73 66 56 51 47 43 43 45 46 44 39 36 36 37 38 38 41 45 47 49 52 54 56 57 57
28 27 17 21 25 25 29 30 30 31 33 37 43 48 57 66 74 77 75 71 67 60 54 50 49 50 48 45 42 38 37 38 39 39 40 42 43 45 47 49 50 53 56 55
39 39 39 38 36 35 37 36 31 31 36 40 47 53 59 66 71 72 71 67 63 60 56 53 50 48 45 43 41 40 40 41 42 42 42 43 42 42 42 44 45 46 50 53
35 39 40 40 40 41 41 41 40 36 34 39 45 53 61 65 66 67 69 68 64 57 53 47 46 45 44 44 45 45 45 45 42 41 40 41 40 38 37 38 40 43 45 48
11 15 20 25 29 33 36 39 40 39 37 39 45 52 60 67 71 72 73 72 67 59 52 48 48 47 47 47 48 47 45 42 40 39 38 37 35 34 35 36 38 41 42 44
10 10 12 14 18 22 25 29 32 36 37 38 42 50 58 65 70 72 71 64 59 55 52 49 49 49 48 48 45 43 41 39 37 36 34 34 34 33 33 36 37 38 39 40
14 16 18 20 25 27 29 28 29 32 36 39 42 48 53 57 61 63 64 58 55 52 50 49 49 49 45 43 41 39 37 35 34 34 33 32 33 35 37 38 39 42 42 42
9 14 20 26 29 31 31 32 31 29 29 33 37 40 43 48 56 59 56 51 49 47 46 44 42 39 38 38 36 35 33 33 32 33 33 33 33 36 38 42 43 42 44 46
13 18 23 27 29 30 31 31 30 27 27 28 30 34 36 39 43 43 43 42 43 42 39 36 35 34 34 33 31 30 30 30 31 32 33 34 36 39 40 42 44 47 47 48
16 19 21 23 26 29 30 29 26 23 22 22 25 28 30 31 33 34 36 36 35 34 32 31 31 32 31 30 28 28 28 30 32 34 37 37 39 41 43 44 47 48 49 50
14 16 18 20 22 23 24 23 23 21 19 19 18 19 21 22 22 22 23 23 24 24 25 27 27 26 27 28 28 29 30 33 35 36 39 41 42 44 46 49 50 49 50 51
Wind_Direction_850mb
186 168 161 164 187 172 198 207 191 220 199 211 196 180 181 177 180 182 185 186 185 181 179 179 176 173 170 168 165 163 163 161 158 155 149 137 78 344 342 341 340 341 343 344
89 63 125 177 190 192 212 179 239 155 239 204 202 186 177 182 179 183 192 193 191 188 186 185 182 177 175 172 170 170 170 167 164 160 152 123 341 336 331 336 346 347 342 340
230 81 87 354 207 196 215 198 217 187 220 161 165 183 185 184 190 197 199 198 197 195 192 190 187 183 179 177 176 173 175 172 168 164 167 296 307 315 333 345 349 344 339 335
138 38 150 248 176 189 204 211 216 228 208 184 195 205 208 211 207 205 204 205 203 200 198 194 189 186 184 180 178 178 176 174 171 176 226 306 319 330 343 343 341 339 335 332
133 193 288 280 234 175 168 243 212 219 231 201 209 212 219 218 220 222 220 215 210 206 201 195 191 186 184 181 181 180 180 179 184 202 281 305 308 321 331 332 333 331 333 334
123 179 217 243 158 148 89 270 210 215 218 168 151 195 237 223 223 222 220 217 211 206 200 195 190 189 187 185 184 183 183 187 196 227 263 278 297 316 324 327 330 331 333 332
157 200 270 219 204 159 154 256 191 220 217 182 188 220 247 240 225 224 219 215 213 206 200 196 192 188 187 187 185 186 188 195 211 231 245 263 296 314 319 323 327 330 332 333
98 98 258 167 114 165 213 158 167 167 221 215 223 232 240 238 223 217 214 210 209 202 197 193 192 189 187 186 186 189 194 204 217 233 250 277 302 312 317 318 322 327 329 332
187 211 238 178 161 190 179 209 210 224 251 242 237 233 234 221 207 207 207 203 202 202 193 189 188 189 187 186 189 193 200 211 222 235 257 281 296 305 310 314 321 327 330 333
97 283 184 203 200 216 228 249 260 257 252 257 253 240 226 209 199 197 198 198 198 192 187 183 183 183 190 190 194 199 210 220 223 238 262 282 296 304 311 316 322 329 332 333
281 291 342 291 259 253 275 274 274 274 258 250 244 235 221 206 199 196 195 193 189 189 186 182 182 184 188 195 200 224 219 221 229 242 261 278 292 304 313 320 327 331 334 334
220 7 63 18 16 232 252 271 266 257 242 234 231 228 216 206 201 198 193 187 186 185 184 184 185 189 193 203 215 213 220 228 241 260 275 287 297 305 310 317 326 329 331 331
189 206 241 17 7 326 320 288 296 283 245 222 226 226 221 211 204 198 192 189 187 185 185 189 191 193 208 209 214 222 226 237 251 268 282 292 299 302 306 313 321 325 328 331
210 180 208 214 208 205 225 256 255 258 264 250 250 237 224 213 203 195 190 188 185 186 189 191 198 204 212 218 222 225 234 248 263 276 285 295 302 306 310 315 318 323 328 331
234 234 248 272 263 243 236 237 236 249 256 253 244 233 222 211 198 190 187 187 189 193 198 202 207 214 221 226 230 235 245 256 269 280 289 298 302 305 309 312 315 319 323 327
229 225 222 270 305 276 277 264 256 257 252 239 225 219 217 207 196 190 191 194 197 199 203 210 217 223 229 234 237 243 255 267 275 280 289 295 298 302 306 309 313 318 324 327
194 216 226 245 299 314 309 300 291 282 263 244 233 220 209 203 199 197 197 199 202 206 213 218 226 233 236 238 244 254 265 273 277 283 287 293 297 301 306 310 314 319 325 329
260 277 289 294 296 293 295 295 291 278 265 254 239 227 217 210 208 205 206 207 208 211 217 225 233 239 241 244 250 259 267 271 275 280 285 290 295 300 306 310 316 321 325 328
248 255 261 267 270 275 280 287 290 287 274 260 247 238 229 221 216 214 214 215 216 221 226 231 238 242 246 251 259 266 269 271 274 279 284 289 294 299 304 310 315 320 322 326
245 253 260 266 271 275 278 279 281 281 275 264 253 241 233 228 225 223 224 226 228 230 232 238 245 249 252 258 262 262 264 267 271 276 282 287 293 298 303 308 313 317 321 325
266 272 274 275 276 276 275 275 276 277 277 272 257 248 240 234 230 227 226 228 229 232 237 242 244 246 249 252 256 259 262 266 270 275 281 286 291 298 304 307 311 315 319 323
53 24 1 341 323 307 291 279 273 268 266 262 260 252 242 236 231 229 229 232 233 235 237 239 241 244 247 250 253 257 261 265 271 277 283 289 294 298 300 302 304 307 312 316
13 358 350 343 334 325 316 301 287 274 265 256 249 248 245 242 237 233 233 233 235 236 238 238 240 243 246 250 254 257 262 268 274 279 283 287 291 295 298 299 302 305 308 309
355 345 338 335 335 334 327 318 304 286 265 256 250 244 239 234 228 228 229 229 232 234 235 236 240 244 247 250 253 258 263 269 275 279 282 286 290 292 295 297 299 301 301 302
322 321 320 319 319 322 320 316 308 296 279 260 242 230 223 222 223 231 233 233 233 235 238 241 244 246 248 252 256 260 265 270 273 277 280 284 286 289 293 294 297 299 299 299
289 290 295 301 308 311 312 310 300 288 274 260 247 238 234 228 222 224 221 221 224 227 231 236 242 247 251 254 258 262 267 272 276 279 283 286 289 291 293 295 295 296 298 298
295 302 306 305 305 305 305 301 290 279 265 251 242 239 230 227 228 227 225 226 230 234 237 238 242 246 252 257 261 266 270 273 277 282 284 288 290 292 293 294 294 295 296 296